When you browse on this site, cookies collect data to enhance your experience and personalize the content and advertising you see.
Visit our Privacy Policy to learn more. By continuing to use the site, you agree to this use of cookies and data.
  • In Austria
  • List of Countries
  • For 7 days
  • Water Temperature
  • Satellite Maps
  • Weather Map
  • News
  • Weather Widgets
  • user-avatar
    Login

    Hourly Weather Zaafrana

    Today, 20 January, Sunday

    Time Temperature Precipitation Wind Pressure Humidity
    00:00 +12°C° 0 mm 2 mps 749 mmHg 66%
    01:00 +10°C° 0 mm 2 mps 749 mmHg 69%
    02:00 +10°C° 0 mm 2 mps 749 mmHg 70%
    03:00 +10°C° 0 mm 2 mps 749 mmHg 71%
    04:00 +9°C° 0 mm 2 mps 748 mmHg 73%
    05:00 +9°C° 0 mm 2 mps 748 mmHg 74%
    06:00 +11°C° 0 mm 1 mps 748 mmHg 68%
    07:00 +12°C° 0 mm 1 mps 749 mmHg 62%
    08:00 +14°C° 0 mm 1 mps 749 mmHg 54%
    09:00 +15°C° 0 mm 1 mps 749 mmHg 48%
    10:00 +18°C° 0 mm 1 mps 749 mmHg 41%
    11:00 +19°C° 0 mm 1 mps 748 mmHg 34%
    12:00 +20°C° 0 mm 1 mps 748 mmHg 31%
    13:00 +21°C° 0 mm 1 mps 748 mmHg 28%
    14:00 +21°C° 0 mm 1 mps 747 mmHg 25%
    15:00 +21°C° 0 mm 1 mps 747 mmHg 26%
    16:00 +20°C° 0 mm 1 mps 747 mmHg 27%
    17:00 +18°C° 0 mm 2 mps 748 mmHg 28%
    18:00 +17°C° 0 mm 2 mps 748 mmHg 33%
    19:00 +16°C° 0 mm 2 mps 748 mmHg 38%
    20:00 +16°C° 0 mm 2 mps 748 mmHg 42%
    21:00 +15°C° 0 mm 2 mps 748 mmHg 44%
    22:00 +15°C° 0 mm 1 mps 748 mmHg 46%
    23:00 +14°C° 0 mm 1 mps 748 mmHg 48%

    Tomorrow, 21 January, Monday

    Time Temperature Precipitation Wind Pressure Humidity
    00:00 +14°C° 0 mm 1 mps 747 mmHg 48%
    01:00 +14°C° 0 mm 1 mps 747 mmHg 47%
    02:00 +14°C° 0 mm 1 mps 747 mmHg 47%
    03:00 +14°C° 0 mm 1 mps 747 mmHg 47%
    04:00 +14°C° 0 mm 1 mps 747 mmHg 47%
    05:00 +14°C° 0 mm 1 mps 747 mmHg 48%
    06:00 +14°C° 0 mm 1 mps 747 mmHg 48%
    07:00 +15°C° 0 mm 1 mps 747 mmHg 48%
    08:00 +15°C° 0 mm 1 mps 748 mmHg 48%
    09:00 +18°C° 0 mm 1 mps 748 mmHg 41%
    10:00 +20°C° 0 mm 1 mps 748 mmHg 34%
    11:00 +22°C° 0 mm 1 mps 748 mmHg 27%
    12:00 +23°C° 0 mm 1 mps 747 mmHg 24%
    13:00 +23°C° 0 mm 1 mps 747 mmHg 22%
    14:00 +24°C° 0 mm 1 mps 746 mmHg 19%
    15:00 +23°C° 0 mm 1 mps 746 mmHg 21%
    16:00 +21°C° 0 mm 1 mps 746 mmHg 22%
    17:00 +18°C° 0 mm 0 mps 746 mmHg 23%
    18:00 +17°C° 0 mm 0 mps 746 mmHg 24%
    19:00 +18°C° 0 mm 1 mps 746 mmHg 25%
    20:00 +16°C° 0 mm 1 mps 746 mmHg 26%
    21:00 +15°C° 0 mm 1 mps 746 mmHg 24%
    22:00 +15°C° 0 mm 1 mps 746 mmHg 22%
    23:00 +15°C° 0 mm 1 mps 746 mmHg 20%

    Day after tomorrow, 22 January, Tuesday

    Time Temperature Precipitation Wind Pressure Humidity
    00:00 +15°C° 0 mm 1 mps 746 mmHg 18%
    01:00 +14°C° 0 mm 1 mps 746 mmHg 17%
    02:00 +14°C° 0 mm 2 mps 746 mmHg 15%
    03:00 +14°C° 0 mm 1 mps 746 mmHg 16%
    04:00 +13°C° 0 mm 1 mps 746 mmHg 16%
    05:00 +13°C° 0 mm 1 mps 746 mmHg 17%
    06:00 +13°C° 0 mm 1 mps 746 mmHg 18%
    07:00 +14°C° 0 mm 1 mps 746 mmHg 18%
    08:00 +15°C° 0 mm 1 mps 747 mmHg 19%
    09:00 +18°C° 0 mm 1 mps 747 mmHg 18%
    10:00 +20°C° 0 mm 1 mps 747 mmHg 17%
    11:00 +22°C° 0 mm 1 mps 747 mmHg 15%
    12:00 +23°C° 0 mm 1 mps 747 mmHg 15%
    13:00 +23°C° 0 mm 2 mps 746 mmHg 15%
    14:00 +23°C° 0 mm 2 mps 746 mmHg 15%
    15:00 +21°C° 0 mm 2 mps 746 mmHg 18%
    16:00 +20°C° 0 mm 2 mps 746 mmHg 22%
    17:00 +19°C° 0 mm 2 mps 746 mmHg 25%
    18:00 +18°C° 0 mm 2 mps 746 mmHg 31%
    19:00 +16°C° 0 mm 2 mps 746 mmHg 37%
    20:00 +15°C° 0 mm 2 mps 747 mmHg 44%
    21:00 +15°C° 0 mm 2 mps 747 mmHg 48%
    22:00 +14°C° 0 mm 2 mps 747 mmHg 52%
    23:00 +14°C° 0 mm 2 mps 747 mmHg 56%

    23 January, Wednesday

    Time Temperature Precipitation Wind Pressure Humidity
    00:00 +13°C° 0 mm 2 mps 747 mmHg 61%
    01:00 +13°C° 0 mm 2 mps 746 mmHg 65%
    02:00 +13°C° 0 mm 2 mps 746 mmHg 69%
    03:00 +13°C° 0 mm 2 mps 746 mmHg 71%
    04:00 +12°C° 0 mm 2 mps 746 mmHg 74%
    05:00 +12°C° 0 mm 2 mps 746 mmHg 76%
    06:00 +13°C° 0 mm 2 mps 746 mmHg 74%
    07:00 +13°C° 0 mm 2 mps 746 mmHg 71%
    08:00 +14°C° 0 mm 2 mps 746 mmHg 68%
    09:00 +16°C° 0 mm 1 mps 746 mmHg 58%
    10:00 +19°C° 0 mm 1 mps 746 mmHg 47%
    11:00 +21°C° 0 mm 1 mps 746 mmHg 36%
    12:00 +21°C° 0 mm 1 mps 745 mmHg 32%
    13:00 +22°C° 0 mm 1 mps 745 mmHg 28%
    14:00 +23°C° 0 mm 1 mps 744 mmHg 24%
    15:00 +22°C° 0 mm 1 mps 744 mmHg 26%
    16:00 +20°C° 0 mm 2 mps 743 mmHg 28%
    17:00 +19°C° 0 mm 2 mps 743 mmHg 30%
    18:00 +18°C° 0 mm 2 mps 743 mmHg 33%
    19:00 +17°C° 0 mm 2 mps 744 mmHg 36%
    20:00 +17°C° 0 mm 2 mps 744 mmHg 39%
    21:00 +16°C° 0 mm 2 mps 744 mmHg 39%
    22:00 +16°C° 0 mm 2 mps 744 mmHg 38%
    23:00 +16°C° 0 mm 2 mps 743 mmHg 37%

    24 January, Thursday

    Time Temperature Precipitation Wind Pressure Humidity
    00:00 +16°C° 0 mm 2 mps 743 mmHg 37%
    01:00 +16°C° 0 mm 3 mps 742 mmHg 37%
    02:00 +16°C° 0 mm 3 mps 742 mmHg 37%
    03:00 +16°C° 0 mm 3 mps 742 mmHg 35%
    04:00 +16°C° 0 mm 3 mps 741 mmHg 33%
    05:00 +16°C° 0 mm 3 mps 741 mmHg 31%
    06:00 +17°C° 0 mm 3 mps 741 mmHg 29%
    07:00 +18°C° 0 mm 4 mps 741 mmHg 28%
    08:00 +19°C° 0 mm 4 mps 742 mmHg 26%
    09:00 +21°C° 0 mm 5 mps 742 mmHg 25%
    10:00 +23°C° 0 mm 6 mps 741 mmHg 25%
    11:00 +26°C° 0 mm 6 mps 741 mmHg 25%
    12:00 +27°C° 0 mm 8 mps 741 mmHg 20%
    13:00 +28°C° 0 mm 10 mps 741 mmHg 15%
    14:00 +29°C° 0 mm 11 mps 741 mmHg 10%
    15:00 +27°C° 0 mm 9 mps 741 mmHg 10%
    16:00 +26°C° 0 mm 7 mps 742 mmHg 10%
    17:00 +23°C° 0 mm 5 mps 742 mmHg 11%
    18:00 +22°C° 0 mm 5 mps 742 mmHg 13%
    19:00 +20°C° 0 mm 4 mps 743 mmHg 15%
    20:00 +18°C° 0 mm 3 mps 744 mmHg 17%
    21:00 +17°C° 0 mm 3 mps 744 mmHg 20%
    22:00 +17°C° 0 mm 3 mps 744 mmHg 23%
    23:00 +16°C° 0 mm 3 mps 744 mmHg 26%

    25 January, Friday

    Time Temperature Precipitation Wind Pressure Humidity
    00:00 +16°C° 0 mm 3 mps 744 mmHg 29%
    01:00 +14°C° 0 mm 3 mps 745 mmHg 32%
    02:00 +15°C° 0 mm 2 mps 745 mmHg 35%
    03:00 +14°C° 0 mm 2 mps 745 mmHg 37%
    04:00 +14°C° 0 mm 2 mps 745 mmHg 39%
    05:00 +13°C° 0 mm 1 mps 745 mmHg 40%
    06:00 +14°C° 0 mm 1 mps 745 mmHg 39%
    07:00 +14°C° 0 mm 1 mps 745 mmHg 37%
    08:00 +15°C° 0 mm 1 mps 745 mmHg 35%
    09:00 +18°C° 0 mm 1 mps 745 mmHg 29%
    10:00 +19°C° 0 mm 2 mps 745 mmHg 22%
    11:00 +23°C° 0 mm 2 mps 745 mmHg 16%
    12:00 +22°C° 0 mm 3 mps 745 mmHg 15%
    13:00 +24°C° 0 mm 3 mps 744 mmHg 14%
    14:00 +25°C° 0 mm 4 mps 744 mmHg 14%
    15:00 +23°C° 0 mm 4 mps 744 mmHg 15%
    16:00 +22°C° 0 mm 3 mps 744 mmHg 17%
    17:00 +21°C° 0 mm 3 mps 744 mmHg 19%
    18:00 +20°C° 0 mm 3 mps 744 mmHg 20%
    19:00 +19°C° 0 mm 3 mps 744 mmHg 21%
    20:00 +18°C° 0 mm 3 mps 744 mmHg 22%
    21:00 +18°C° 0 mm 3 mps 744 mmHg 23%
    22:00 +17°C° 0 mm 3 mps 745 mmHg 25%
    23:00 +15°C° 0 mm 4 mps 745 mmHg 27%
    Show more